Location: Baggettsville
(36.4767°N, 86.7303°W)
Time: 23:15:12
(UTC+00:00)

NOSS 3-3 (C) - Pass Details

Date: 29 October 2020
Orbit: 825 x 1387 km, 63.4° (Epoch: 22 November)

Event Time Altitude Azimuth Distance (km) Brightness Sun altitude
Rises 23:21:56 0° 199° (SSW) 3,357 7.3 -6.5°
Reaches altitude 10° 23:24:19 10° 195° (SSW) 2,450 6.5 -6.9°
Maximum altitude 23:29:50 60° 117° (ESE) 1,011 3.9 -8.0°
Drops below altitude 10° 23:35:56 10° 39° (NE) 2,710 5.9 -9.2°
Enters shadow 23:38:38 - 36° (NE) 3,719 6.6 -9.8°
